PLEIADES 1A

Last updated on Fri Oct 04 2024 00:02:25 GMT+0000 (Coordinated Universal Time)

1 38012U 11076F 24277.52610051 .00002880 00000+0 62902-3 0 9990 2 38012 98.1954 350.5758 0000940 93.4664 323.8700 14.58564754681377
UTC large
Height (km)
Speed (km/s)
/
Latitude / Longitude
Inclination (degrees)
Orbital Period (minutes)
Azimuth
Elevation
Range (km)
Doppler Factor

Next 0 passes for location: London (51.5072 / 0.1276)

Sorry there are no passes over London.